Back to catalog

ORBCOMM FM 109

AliveCommunicationsLEO
NORAD 40086·PAYLOAD·🇺🇸 United States

Launched Jul 14, 2014 from Cape Canaveral Space Force Station

Loading…

Next Passes (next 24 hours)

TLE

FreshSource: Space-Track

Epoch: Sep 14, 2026, 09:41 UTC

1 40086U 14040A   26257.40376860  .00000285  00000-0  96454-4 0  9990
2 40086  47.0041  29.6519 0002106 261.9418  98.1229 14.58917344647372

Track ORBCOMM FM 109 in real time with AllMySat

Download on the App Store